Location: Unspecified
(52.4292°N, 19.3359°E)
Time: 05:12:20
(UTC+02:00)

A-11 Canister half - Pass Details

Date: 18 April 2026
Orbit: 1515 x 1684 km, 47.2° (Epoch: 11 May)

Event Time Altitude Azimuth Distance (km) Brightness Sun altitude
Exits shadow 04:03:09 - 186° (S) 4,498 11.0 -13.6°
Reaches altitude 10° 04:06:41 10° 172° (S) 3,672 10.7 -13.1°
Maximum altitude 04:12:41 19° 131° (SE) 3,014 10.7 -12.4°
Drops below altitude 10° 04:18:44 10° 90° (E) 3,734 11.9 -11.7°
Sets 04:22:55 0° 74° (ENE) 4,749 13.1 -11.1°
